contact:dominique.lefevre@mio.osupytheas.fr, maurice.libes@osupytheas.fr, didier.mallarino@osupytheas.fr
Project:EMSO http://www.emso-fr.org/EMSO-France
Depth: 2436.0 m
Title:EMSO Ligure Ouest : Data MII capteur MICROCAT
DateTime_Computer,Latitude,Longitude,Temperature,Conductivity,Pressure,DateTime_Instrument
DateTime_Computer,Latitude,Longitude,degC,S m-1,dbar,DateTime_Instrument
2021-01-23T00:00:34Z,42.805,6.029,13.2994,4.60011,2470.18,2021-1-23T02:01:36Z
2021-01-23T00:03:37Z,42.805,6.029,13.2996,4.60001,2470.156,2021-1-23T02:04:39Z
2021-01-23T00:06:40Z,42.805,6.029,13.2991,4.60001,2470.156,2021-1-23T02:07:42Z
2021-01-23T00:09:43Z,42.805,6.029,13.2988,4.59996,2470.133,2021-1-23T02:10:45Z
2021-01-23T00:12:46Z,42.805,6.029,13.2986,4.60002,2470.156,2021-1-23T02:13:48Z
2021-01-23T00:15:50Z,42.805,6.029,13.2991,4.60003,2470.156,2021-1-23T02:16:52Z
2021-01-23T00:18:53Z,42.805,6.029,13.2994,4.60009,2470.156,2021-1-23T02:19:55Z
2021-01-23T00:21:56Z,42.805,6.029,13.2989,4.60002,2470.156,2021-1-23T02:22:58Z
2021-01-23T00:24:59Z,42.805,6.029,13.2993,4.60000,2470.171,2021-1-23T02:26:01Z
2021-01-23T00:28:02Z,42.805,6.029,13.2987,4.59999,2470.171,2021-1-23T02:29:04Z
2021-01-23T00:31:05Z,42.805,6.029,13.2988,4.60001,2470.156,2021-1-23T02:32:07Z
2021-01-23T00:34:08Z,42.805,6.029,13.2989,4.59999,2470.194,2021-1-23T02:35:10Z
2021-01-23T00:37:11Z,42.805,6.029,13.2991,4.60001,2470.194,2021-1-23T02:38:13Z
2021-01-23T00:40:15Z,42.805,6.029,13.2989,4.60003,2470.156,2021-1-23T02:41:17Z
2021-01-23T00:43:18Z,42.805,6.029,13.2988,4.60005,2470.171,2021-1-23T02:44:20Z
2021-01-23T00:46:21Z,42.805,6.029,13.2990,4.60002,2470.156,2021-1-23T02:47:23Z
2021-01-23T00:49:24Z,42.805,6.029,13.2990,4.60010,2470.18,2021-1-23T02:50:26Z
2021-01-23T00:52:27Z,42.805,6.029,13.2988,4.60009,2470.18,2021-1-23T02:53:29Z
2021-01-23T00:55:30Z,42.805,6.029,13.2991,4.60009,2470.18,2021-1-23T02:56:32Z
2021-01-23T00:58:33Z,42.805,6.029,13.2993,4.60019,2470.18,2021-1-23T02:59:35Z
2021-01-23T01:01:36Z,42.805,6.029,13.2991,4.60009,2470.18,2021-1-23T03:02:38Z
2021-01-23T01:04:39Z,42.805,6.029,13.2999,4.60018,2470.18,2021-1-23T03:05:41Z
2021-01-23T01:07:43Z,42.805,6.029,13.2997,4.60011,2470.171,2021-1-23T03:08:45Z
2021-01-23T01:10:46Z,42.805,6.029,13.2993,4.60010,2470.171,2021-1-23T03:11:48Z
2021-01-23T01:13:49Z,42.805,6.029,13.2994,4.60004,2470.194,2021-1-23T03:14:51Z
2021-01-23T01:16:52Z,42.805,6.029,13.2992,4.60006,2470.18,2021-1-23T03:17:54Z
2021-01-23T01:19:55Z,42.805,6.029,13.2993,4.60011,2470.156,2021-1-23T03:20:57Z
2021-01-23T01:22:58Z,42.805,6.029,13.2987,4.60004,2470.18,2021-1-23T03:24:00Z
2021-01-23T01:26:01Z,42.805,6.029,13.2989,4.60003,2470.194,2021-1-23T03:27:03Z
2021-01-23T01:29:04Z,42.805,6.029,13.2988,4.60001,2470.171,2021-1-23T03:30:06Z
2021-01-23T01:32:08Z,42.805,6.029,13.2994,4.60003,2470.203,2021-1-23T03:33:10Z
2021-01-23T01:35:11Z,42.805,6.029,13.2985,4.60004,2470.171,2021-1-23T03:36:13Z
2021-01-23T01:38:14Z,42.805,6.029,13.2988,4.60001,2470.18,2021-1-23T03:39:16Z
2021-01-23T01:41:17Z,42.805,6.029,13.2988,4.60003,2470.194,2021-1-23T03:42:19Z
2021-01-23T01:44:20Z,42.805,6.029,13.2990,4.60000,2470.194,2021-1-23T03:45:22Z
2021-01-23T01:47:23Z,42.805,6.029,13.2990,4.60001,2470.227,2021-1-23T03:48:25Z
2021-01-23T01:50:26Z,42.805,6.029,13.2991,4.60014,2470.203,2021-1-23T03:51:28Z
2021-01-23T01:53:29Z,42.805,6.029,13.2990,4.60021,2470.156,2021-1-23T03:54:31Z
2021-01-23T01:56:33Z,42.805,6.029,13.2993,4.60023,2470.18,2021-1-23T03:57:35Z
2021-01-23T01:59:36Z,42.805,6.029,13.2996,4.60029,2470.203,2021-1-23T04:00:38Z
2021-01-23T02:02:39Z,42.805,6.029,13.2993,4.60006,2470.194,2021-1-23T04:03:41Z
2021-01-23T02:05:42Z,42.805,6.029,13.2994,4.60007,2470.194,2021-1-23T04:06:44Z
2021-01-23T02:08:45Z,42.805,6.029,13.2990,4.60002,2470.18,2021-1-23T04:09:47Z
2021-01-23T02:11:48Z,42.805,6.029,13.2992,4.60005,2470.24,2021-1-23T04:12:50Z
2021-01-23T02:14:51Z,42.805,6.029,13.2991,4.60009,2470.18,2021-1-23T04:15:53Z
2021-01-23T02:17:54Z,42.805,6.029,13.2998,4.60011,2470.227,2021-1-23T04:18:56Z
2021-01-23T02:20:58Z,42.805,6.029,13.2993,4.60009,2470.18,2021-1-23T04:22:00Z
2021-01-23T02:24:01Z,42.805,6.029,13.2994,4.60001,2470.156,2021-1-23T04:25:03Z
2021-01-23T02:27:04Z,42.805,6.029,13.2994,4.60002,2470.194,2021-1-23T04:28:06Z
2021-01-23T02:30:07Z,42.805,6.029,13.2992,4.60006,2470.24,2021-1-23T04:31:09Z
2021-01-23T02:33:10Z,42.805,6.029,13.2992,4.60001,2470.194,2021-1-23T04:34:12Z
2021-01-23T02:36:13Z,42.805,6.029,13.2994,4.59999,2470.203,2021-1-23T04:37:15Z
2021-01-23T02:39:16Z,42.805,6.029,13.2991,4.60010,2470.217,2021-1-23T04:40:18Z
2021-01-23T02:42:19Z,42.805,6.029,13.2989,4.60009,2470.203,2021-1-23T04:43:21Z
2021-01-23T02:45:23Z,42.805,6.029,13.2989,4.60003,2470.217,2021-1-23T04:46:25Z
2021-01-23T02:48:26Z,42.805,6.029,13.2994,4.60005,2470.203,2021-1-23T04:49:28Z
2021-01-23T02:51:29Z,42.805,6.029,13.2993,4.60006,2470.203,2021-1-23T04:52:31Z
2021-01-23T02:54:32Z,42.805,6.029,13.2988,4.60008,2470.217,2021-1-23T04:55:34Z
2021-01-23T02:57:35Z,42.805,6.029,13.2990,4.60018,2470.227,2021-1-23T04:58:37Z
2021-01-23T03:00:38Z,42.805,6.029,13.2992,4.60005,2470.217,2021-1-23T05:01:40Z
2021-01-23T03:03:41Z,42.805,6.029,13.3002,4.60015,2470.24,2021-1-23T05:04:43Z
2021-01-23T03:06:44Z,42.805,6.029,13.2997,4.60006,2470.203,2021-1-23T05:07:46Z
2021-01-23T03:09:48Z,42.805,6.029,13.2993,4.60006,2470.18,2021-1-23T05:10:50Z
2021-01-23T03:12:51Z,42.805,6.029,13.2991,4.60014,2470.217,2021-1-23T05:13:53Z
2021-01-23T03:15:54Z,42.805,6.029,13.2993,4.60014,2470.194,2021-1-23T05:16:56Z
2021-01-23T03:18:57Z,42.805,6.029,13.2996,4.60009,2470.18,2021-1-23T05:19:59Z
2021-01-23T03:22:00Z,42.805,6.029,13.2989,4.60004,2470.203,2021-1-23T05:23:02Z
2021-01-23T03:25:03Z,42.805,6.029,13.2990,4.60009,2470.203,2021-1-23T05:26:05Z
2021-01-23T03:28:06Z,42.805,6.029,13.2991,4.60006,2470.217,2021-1-23T05:29:08Z
2021-01-23T03:31:09Z,42.805,6.029,13.2989,4.60009,2470.217,2021-1-23T05:32:11Z
2021-01-23T03:34:12Z,42.805,6.029,13.2996,4.60025,2470.217,2021-1-23T05:35:15Z
2021-01-23T03:37:16Z,42.805,6.029,13.2991,4.59996,2470.217,2021-1-23T05:38:18Z
2021-01-23T03:40:19Z,42.805,6.029,13.2993,4.60008,2470.217,2021-1-23T05:41:21Z
2021-01-23T03:43:22Z,42.805,6.029,13.2993,4.60014,2470.18,2021-1-23T05:44:24Z
2021-01-23T03:46:25Z,42.805,6.029,13.2996,4.60009,2470.217,2021-1-23T05:47:27Z
2021-01-23T03:49:28Z,42.805,6.029,13.2996,4.60015,2470.203,2021-1-23T05:50:30Z
2021-01-23T03:52:31Z,42.805,6.029,13.2995,4.60022,2470.217,2021-1-23T05:53:33Z
2021-01-23T03:55:34Z,42.805,6.029,13.2996,4.60024,2470.24,2021-1-23T05:56:36Z
2021-01-23T03:58:38Z,42.805,6.029,13.3000,4.60016,2470.24,2021-1-23T05:59:40Z
2021-01-23T04:01:41Z,42.805,6.029,13.2991,4.60014,2470.203,2021-1-23T06:02:43Z
2021-01-23T04:04:44Z,42.805,6.029,13.2995,4.60014,2470.227,2021-1-23T06:05:46Z
2021-01-23T04:07:47Z,42.805,6.029,13.2999,4.60013,2470.203,2021-1-23T06:08:49Z
2021-01-23T04:10:50Z,42.805,6.029,13.2993,4.60011,2470.217,2021-1-23T06:11:52Z
2021-01-23T04:13:53Z,42.805,6.029,13.2996,4.60014,2470.24,2021-1-23T06:14:55Z
2021-01-23T04:16:56Z,42.805,6.029,13.2990,4.60005,2470.203,2021-1-23T06:17:58Z
2021-01-23T04:19:59Z,42.805,6.029,13.2991,4.60003,2470.254,2021-1-23T06:21:01Z
2021-01-23T04:23:02Z,42.805,6.029,13.2990,4.60011,2470.217,2021-1-23T06:24:04Z
2021-01-23T04:26:06Z,42.805,6.029,13.2996,4.60013,2470.24,2021-1-23T06:27:08Z
2021-01-23T04:29:09Z,42.805,6.029,13.2990,4.60006,2470.18,2021-1-23T06:30:11Z
2021-01-23T04:32:12Z,42.805,6.029,13.2994,4.60016,2470.227,2021-1-23T06:33:14Z
2021-01-23T04:35:15Z,42.805,6.029,13.2992,4.60003,2470.203,2021-1-23T06:36:17Z
2021-01-23T04:38:18Z,42.805,6.029,13.2989,4.60009,2470.203,2021-1-23T06:39:20Z
2021-01-23T04:41:21Z,42.805,6.029,13.2992,4.60012,2470.264,2021-1-23T06:42:23Z
2021-01-23T04:44:24Z,42.805,6.029,13.2989,4.59999,2470.156,2021-1-23T06:45:26Z
2021-01-23T04:47:27Z,42.805,6.029,13.2992,4.60002,2470.227,2021-1-23T06:48:29Z
2021-01-23T04:50:31Z,42.805,6.029,13.2992,4.60006,2470.194,2021-1-23T06:51:33Z
2021-01-23T04:53:34Z,42.805,6.029,13.2990,4.60001,2470.18,2021-1-23T06:54:36Z
2021-01-23T04:56:37Z,42.805,6.029,13.2995,4.60009,2470.18,2021-1-23T06:57:39Z
2021-01-23T04:59:40Z,42.805,6.029,13.2989,4.60001,2470.227,2021-1-23T07:00:42Z
2021-01-23T05:02:43Z,42.805,6.029,13.2992,4.60011,2470.203,2021-1-23T07:03:45Z
2021-01-23T05:05:46Z,42.805,6.029,13.2991,4.60006,2470.203,2021-1-23T07:06:48Z
2021-01-23T05:08:49Z,42.805,6.029,13.2990,4.60001,2470.18,2021-1-23T07:09:51Z
2021-01-23T05:11:52Z,42.805,6.029,13.2991,4.60001,2470.194,2021-1-23T07:12:54Z
2021-01-23T05:14:56Z,42.805,6.029,13.2990,4.60002,2470.24,2021-1-23T07:15:58Z
2021-01-23T05:17:59Z,42.805,6.029,13.2990,4.60014,2470.18,2021-1-23T07:19:01Z
2021-01-23T05:21:02Z,42.805,6.029,13.2993,4.60004,2470.194,2021-1-23T07:22:04Z
2021-01-23T05:24:05Z,42.805,6.029,13.2990,4.60006,2470.24,2021-1-23T07:25:07Z
2021-01-23T05:27:08Z,42.805,6.029,13.2991,4.60007,2470.18,2021-1-23T07:28:10Z
2021-01-23T05:30:11Z,42.805,6.029,13.2991,4.60010,2470.194,2021-1-23T07:31:13Z
2021-01-23T05:33:14Z,42.805,6.029,13.2993,4.60010,2470.203,2021-1-23T07:34:16Z
2021-01-23T05:36:17Z,42.805,6.029,13.2989,4.60003,2470.203,2021-1-23T07:37:19Z
2021-01-23T05:39:21Z,42.805,6.029,13.2989,4.60003,2470.194,2021-1-23T07:40:23Z
2021-01-23T05:42:24Z,42.805,6.029,13.2992,4.60011,2470.18,2021-1-23T07:43:26Z
2021-01-23T05:45:27Z,42.805,6.029,13.2983,4.60000,2470.217,2021-1-23T07:46:29Z
2021-01-23T05:48:30Z,42.805,6.029,13.2990,4.60009,2470.194,2021-1-23T07:49:32Z
2021-01-23T05:51:33Z,42.805,6.029,13.2990,4.60003,2470.18,2021-1-23T07:52:35Z
2021-01-23T05:54:36Z,42.805,6.029,13.2986,4.60009,2470.217,2021-1-23T07:55:38Z
2021-01-23T05:57:39Z,42.805,6.029,13.2991,4.60004,2470.171,2021-1-23T07:58:41Z
2021-01-23T06:00:42Z,42.805,6.029,13.2988,4.59997,2470.217,2021-1-23T08:01:44Z
2021-01-23T06:03:45Z,42.805,6.029,13.2989,4.60011,2470.217,2021-1-23T08:04:48Z
2021-01-23T06:06:49Z,42.805,6.029,13.2989,4.60005,2470.156,2021-1-23T08:07:51Z
2021-01-23T06:09:52Z,42.805,6.029,13.2990,4.60003,2470.18,2021-1-23T08:10:54Z
2021-01-23T06:12:55Z,42.805,6.029,13.2986,4.60009,2470.18,2021-1-23T08:13:57Z
2021-01-23T06:15:58Z,42.805,6.029,13.2987,4.60003,2470.203,2021-1-23T08:17:00Z
2021-01-23T06:19:01Z,42.805,6.029,13.2986,4.60007,2470.156,2021-1-23T08:20:03Z
2021-01-23T06:22:04Z,42.805,6.029,13.2993,4.60015,2470.156,2021-1-23T08:23:06Z
2021-01-23T06:25:07Z,42.805,6.029,13.2991,4.60009,2470.194,2021-1-23T08:26:09Z
2021-01-23T06:28:10Z,42.805,6.029,13.2993,4.60008,2470.156,2021-1-23T08:29:12Z
2021-01-23T06:31:14Z,42.805,6.029,13.2987,4.60007,2470.217,2021-1-23T08:32:16Z
2021-01-23T06:34:17Z,42.805,6.029,13.2991,4.60005,2470.18,2021-1-23T08:35:19Z
2021-01-23T06:37:20Z,42.805,6.029,13.2991,4.60005,2470.18,2021-1-23T08:38:22Z
2021-01-23T06:40:23Z,42.805,6.029,13.2985,4.59998,2470.143,2021-1-23T08:41:25Z
2021-01-23T06:43:26Z,42.805,6.029,13.2990,4.60000,2470.156,2021-1-23T08:44:28Z
2021-01-23T06:46:29Z,42.805,6.029,13.2988,4.60015,2470.18,2021-1-23T08:47:31Z
2021-01-23T06:49:32Z,42.805,6.029,13.2993,4.60009,2470.156,2021-1-23T08:50:34Z
2021-01-23T06:52:35Z,42.805,6.029,13.2993,4.60003,2470.227,2021-1-23T08:53:38Z
2021-01-23T06:55:39Z,42.805,6.029,13.3000,4.60014,2470.18,2021-1-23T08:56:41Z
2021-01-23T06:58:42Z,42.805,6.029,13.2987,4.60002,2470.203,2021-1-23T08:59:44Z
2021-01-23T07:01:45Z,42.805,6.029,13.2989,4.60002,2470.217,2021-1-23T09:02:47Z
2021-01-23T07:04:48Z,42.805,6.029,13.2985,4.60016,2470.217,2021-1-23T09:05:50Z
2021-01-23T07:07:51Z,42.805,6.029,13.2990,4.60001,2470.194,2021-1-23T09:08:53Z
2021-01-23T07:10:54Z,42.805,6.029,13.2991,4.60007,2470.156,2021-1-23T09:11:56Z
2021-01-23T07:13:57Z,42.805,6.029,13.2998,4.60009,2470.18,2021-1-23T09:14:59Z
2021-01-23T07:17:00Z,42.805,6.029,13.2988,4.60017,2470.18,2021-1-23T09:18:03Z
2021-01-23T07:20:04Z,42.805,6.029,13.2983,4.60004,2470.18,2021-1-23T09:21:06Z
2021-01-23T07:23:07Z,42.805,6.029,13.2986,4.60006,2470.147,2021-1-23T09:24:09Z
2021-01-23T07:26:10Z,42.805,6.029,13.2991,4.60011,2470.203,2021-1-23T09:27:12Z
2021-01-23T07:29:13Z,42.805,6.029,13.2993,4.60003,2470.143,2021-1-23T09:30:15Z
2021-01-23T07:32:16Z,42.805,6.029,13.2988,4.59999,2470.18,2021-1-23T09:33:18Z
2021-01-23T07:35:19Z,42.805,6.029,13.2987,4.60010,2470.156,2021-1-23T09:36:21Z
2021-01-23T07:38:22Z,42.805,6.029,13.2988,4.59999,2470.147,2021-1-23T09:39:24Z
2021-01-23T07:41:25Z,42.805,6.029,13.2991,4.60002,2470.171,2021-1-23T09:42:28Z
2021-01-23T07:44:29Z,42.805,6.029,13.2987,4.60009,2470.171,2021-1-23T09:45:31Z
2021-01-23T07:47:32Z,42.805,6.029,13.2986,4.60003,2470.147,2021-1-23T09:48:34Z
2021-01-23T07:50:35Z,42.805,6.029,13.2984,4.59999,2470.133,2021-1-23T09:51:37Z
2021-01-23T07:53:38Z,42.805,6.029,13.2988,4.59999,2470.194,2021-1-23T09:54:40Z
2021-01-23T07:56:41Z,42.805,6.029,13.2988,4.60003,2470.171,2021-1-23T09:57:43Z
2021-01-23T07:59:44Z,42.805,6.029,13.2984,4.60000,2470.171,2021-1-23T10:00:46Z
2021-01-23T08:02:47Z,42.805,6.029,13.2996,4.60003,2470.156,2021-1-23T10:03:49Z
2021-01-23T08:05:50Z,42.805,6.029,13.2993,4.60021,2470.133,2021-1-23T10:06:52Z
2021-01-23T08:08:54Z,42.805,6.029,13.2995,4.60021,2470.156,2021-1-23T10:09:56Z
2021-01-23T08:11:57Z,42.805,6.029,13.2991,4.60009,2470.133,2021-1-23T10:12:59Z
2021-01-23T08:15:00Z,42.805,6.029,13.2991,4.60019,2470.133,2021-1-23T10:16:02Z
2021-01-23T08:18:03Z,42.805,6.029,13.2991,4.60003,2470.156,2021-1-23T10:19:05Z
2021-01-23T08:21:06Z,42.805,6.029,13.2991,4.60009,2470.156,2021-1-23T10:22:08Z
2021-01-23T08:24:09Z,42.805,6.029,13.2991,4.60006,2470.147,2021-1-23T10:25:11Z
2021-01-23T08:27:12Z,42.805,6.029,13.2996,4.60002,2470.147,2021-1-23T10:28:14Z
2021-01-23T08:30:15Z,42.805,6.029,13.2990,4.60005,2470.171,2021-1-23T10:31:18Z
2021-01-23T08:33:19Z,42.805,6.029,13.2986,4.60009,2470.147,2021-1-23T10:34:21Z
2021-01-23T08:36:22Z,42.805,6.029,13.2991,4.60025,2470.133,2021-1-23T10:37:24Z
2021-01-23T08:39:25Z,42.805,6.029,13.2991,4.60009,2470.18,2021-1-23T10:40:27Z
2021-01-23T08:42:28Z,42.805,6.029,13.2991,4.60014,2470.156,2021-1-23T10:43:30Z
2021-01-23T08:45:31Z,42.805,6.029,13.2989,4.60004,2470.156,2021-1-23T10:46:33Z
2021-01-23T08:48:34Z,42.805,6.029,13.2992,4.60019,2470.147,2021-1-23T10:49:36Z
2021-01-23T08:51:37Z,42.805,6.029,13.3000,4.60026,2470.156,2021-1-23T10:52:39Z
2021-01-23T08:54:41Z,42.805,6.029,13.2993,4.60011,2470.124,2021-1-23T10:55:43Z
2021-01-23T08:57:44Z,42.805,6.029,13.2991,4.60019,2470.133,2021-1-23T10:58:46Z
2021-01-23T09:00:47Z,42.805,6.029,13.2990,4.60000,2470.171,2021-1-23T11:01:49Z
2021-01-23T09:03:50Z,42.805,6.029,13.2990,4.60015,2470.133,2021-1-23T11:04:52Z
2021-01-23T09:06:53Z,42.805,6.029,13.2993,4.60004,2470.147,2021-1-23T11:07:55Z
2021-01-23T09:09:56Z,42.805,6.029,13.2985,4.60004,2470.11,2021-1-23T11:10:58Z
2021-01-23T09:12:59Z,42.805,6.029,13.2990,4.60001,2470.133,2021-1-23T11:14:01Z
2021-01-23T09:16:02Z,42.805,6.029,13.2990,4.60014,2470.147,2021-1-23T11:17:04Z
2021-01-23T09:19:06Z,42.805,6.029,13.2989,4.60000,2470.11,2021-1-23T11:20:08Z
2021-01-23T09:22:09Z,42.805,6.029,13.2983,4.60011,2470.156,2021-1-23T11:23:11Z
2021-01-23T09:25:12Z,42.805,6.029,13.2986,4.60008,2470.133,2021-1-23T11:26:14Z
2021-01-23T09:28:15Z,42.805,6.029,13.2991,4.60016,2470.156,2021-1-23T11:29:17Z
2021-01-23T09:31:18Z,42.805,6.029,13.2994,4.60013,2470.147,2021-1-23T11:32:20Z
2021-01-23T09:34:21Z,42.805,6.029,13.2989,4.59999,2470.171,2021-1-23T11:35:23Z
2021-01-23T09:37:24Z,42.805,6.029,13.2991,4.60009,2470.147,2021-1-23T11:38:26Z
2021-01-23T09:40:27Z,42.805,6.029,13.2991,4.60014,2470.147,2021-1-23T11:41:29Z
2021-01-23T09:43:31Z,42.805,6.029,13.2990,4.60003,2470.171,2021-1-23T11:44:33Z
2021-01-23T09:46:34Z,42.805,6.029,13.2990,4.60014,2470.133,2021-1-23T11:47:36Z
2021-01-23T09:49:37Z,42.805,6.029,13.2990,4.60003,2470.11,2021-1-23T11:50:39Z
2021-01-23T09:52:40Z,42.805,6.029,13.2993,4.60024,2470.124,2021-1-23T11:53:42Z
2021-01-23T09:55:43Z,42.805,6.029,13.2992,4.60018,2470.133,2021-1-23T11:56:45Z
2021-01-23T09:58:46Z,42.805,6.029,13.2999,4.60026,2470.124,2021-1-23T11:59:48Z
2021-01-23T10:01:49Z,42.805,6.029,13.2988,4.60006,2470.133,2021-1-23T12:02:51Z
2021-01-23T10:04:52Z,42.805,6.029,13.2987,4.59997,2470.1,2021-1-23T12:05:54Z
2021-01-23T10:07:56Z,42.805,6.029,13.2992,4.60011,2470.11,2021-1-23T12:08:58Z
2021-01-23T10:10:59Z,42.805,6.029,13.2990,4.60016,2470.133,2021-1-23T12:12:01Z
2021-01-23T10:14:02Z,42.805,6.029,13.2990,4.60001,2470.133,2021-1-23T12:15:04Z
2021-01-23T10:17:05Z,42.805,6.029,13.2993,4.60004,2470.147,2021-1-23T12:18:07Z
2021-01-23T10:20:08Z,42.805,6.029,13.2993,4.60010,2470.133,2021-1-23T12:21:10Z
2021-01-23T10:23:11Z,42.805,6.029,13.2992,4.60016,2470.087,2021-1-23T12:24:13Z
2021-01-23T10:26:14Z,42.805,6.029,13.2990,4.60003,2470.133,2021-1-23T12:27:16Z
2021-01-23T10:29:17Z,42.805,6.029,13.2993,4.60014,2470.147,2021-1-23T12:30:19Z
2021-01-23T10:32:21Z,42.805,6.029,13.2989,4.60008,2470.11,2021-1-23T12:33:23Z
2021-01-23T10:35:24Z,42.805,6.029,13.2993,4.60020,2470.124,2021-1-23T12:36:26Z
2021-01-23T10:38:27Z,42.805,6.029,13.2991,4.59999,2470.147,2021-1-23T12:39:29Z
2021-01-23T10:41:30Z,42.805,6.029,13.2992,4.60009,2470.133,2021-1-23T12:42:32Z
2021-01-23T10:44:33Z,42.805,6.029,13.2990,4.60009,2470.124,2021-1-23T12:45:35Z
2021-01-23T10:47:36Z,42.805,6.029,13.2993,4.60020,2470.11,2021-1-23T12:48:38Z
2021-01-23T10:50:39Z,42.805,6.029,13.3000,4.60015,2470.11,2021-1-23T12:51:41Z
2021-01-23T10:53:42Z,42.805,6.029,13.2996,4.60024,2470.124,2021-1-23T12:54:45Z
2021-01-23T10:56:46Z,42.805,6.029,13.3021,4.60041,2470.147,2021-1-23T12:57:48Z
2021-01-23T10:59:49Z,42.805,6.029,13.2991,4.60019,2470.11,2021-1-23T13:00:51Z
2021-01-23T11:02:52Z,42.805,6.029,13.2998,4.60022,2470.124,2021-1-23T13:03:54Z
2021-01-23T11:05:55Z,42.805,6.029,13.3001,4.60026,2470.133,2021-1-23T13:06:57Z
2021-01-23T11:08:58Z,42.805,6.029,13.2986,4.60003,2470.11,2021-1-23T13:10:00Z
2021-01-23T11:12:01Z,42.805,6.029,13.2993,4.60017,2470.133,2021-1-23T13:13:03Z
2021-01-23T11:15:04Z,42.805,6.029,13.3001,4.60013,2470.147,2021-1-23T13:16:06Z
2021-01-23T11:18:07Z,42.805,6.029,13.2993,4.60010,2470.124,2021-1-23T13:19:10Z
2021-01-23T11:21:11Z,42.805,6.029,13.2997,4.60025,2470.11,2021-1-23T13:22:13Z
2021-01-23T11:24:14Z,42.805,6.029,13.2993,4.60025,2470.1,2021-1-23T13:25:16Z
2021-01-23T11:27:17Z,42.805,6.029,13.2991,4.60019,2470.133,2021-1-23T13:28:19Z
2021-01-23T11:30:20Z,42.805,6.029,13.2999,4.60021,2470.11,2021-1-23T13:31:22Z
2021-01-23T11:33:23Z,42.805,6.029,13.2996,4.60019,2470.147,2021-1-23T13:34:25Z
2021-01-23T11:36:26Z,42.805,6.029,13.2997,4.60023,2470.147,2021-1-23T13:37:28Z
2021-01-23T11:39:29Z,42.805,6.029,13.2997,4.60042,2470.133,2021-1-23T13:40:31Z
2021-01-23T11:42:33Z,42.805,6.029,13.3001,4.60019,2470.147,2021-1-23T13:43:35Z
2021-01-23T11:45:36Z,42.805,6.029,13.3009,4.60028,2470.147,2021-1-23T13:46:38Z
2021-01-23T11:48:39Z,42.805,6.029,13.2999,4.60014,2470.133,2021-1-23T13:49:41Z
2021-01-23T11:51:42Z,42.805,6.029,13.2990,4.60024,2470.133,2021-1-23T13:52:44Z
2021-01-23T11:54:45Z,42.805,6.029,13.2996,4.60019,2470.11,2021-1-23T13:55:47Z
2021-01-23T11:57:48Z,42.805,6.029,13.2998,4.60022,2470.156,2021-1-23T13:58:50Z
2021-01-23T12:00:51Z,42.805,6.029,13.3000,4.60013,2470.171,2021-1-23T14:01:53Z
2021-01-23T12:03:54Z,42.805,6.029,13.3006,4.60020,2470.133,2021-1-23T14:04:56Z
2021-01-23T12:06:58Z,42.805,6.029,13.3006,4.60026,2470.11,2021-1-23T14:08:00Z
2021-01-23T12:10:01Z,42.805,6.029,13.3004,4.60016,2470.147,2021-1-23T14:11:03Z
2021-01-23T12:13:04Z,42.805,6.029,13.3000,4.60014,2470.11,2021-1-23T14:14:06Z
2021-01-23T12:16:07Z,42.805,6.029,13.2997,4.60021,2470.147,2021-1-23T14:17:09Z
2021-01-23T12:19:10Z,42.805,6.029,13.2998,4.60010,2470.147,2021-1-23T14:20:12Z
2021-01-23T12:22:13Z,42.805,6.029,13.2998,4.60011,2470.133,2021-1-23T14:23:15Z
2021-01-23T12:25:16Z,42.805,6.029,13.3005,4.60021,2470.133,2021-1-23T14:26:18Z
2021-01-23T12:28:19Z,42.805,6.029,13.3009,4.60023,2470.171,2021-1-23T14:29:21Z
2021-01-23T12:31:23Z,42.805,6.029,13.3005,4.60011,2470.133,2021-1-23T14:32:25Z
2021-01-23T12:34:26Z,42.805,6.029,13.3008,4.60035,2470.156,2021-1-23T14:35:28Z
2021-01-23T12:37:29Z,42.805,6.029,13.3006,4.60037,2470.133,2021-1-23T14:38:31Z
2021-01-23T12:40:32Z,42.805,6.029,13.3006,4.60007,2470.171,2021-1-23T14:41:34Z
2021-01-23T12:43:35Z,42.805,6.029,13.3014,4.60014,2470.147,2021-1-23T14:44:37Z
2021-01-23T12:46:38Z,42.805,6.029,13.3011,4.60024,2470.133,2021-1-23T14:47:40Z
2021-01-23T12:49:41Z,42.805,6.029,13.2998,4.60008,2470.124,2021-1-23T14:50:43Z
2021-01-23T12:52:44Z,42.805,6.029,13.2994,4.60006,2470.156,2021-1-23T14:53:46Z
2021-01-23T12:55:48Z,42.805,6.029,13.2996,4.60003,2470.18,2021-1-23T14:56:50Z
2021-01-23T12:58:51Z,42.805,6.029,13.3006,4.60012,2470.147,2021-1-23T14:59:53Z
2021-01-23T13:01:54Z,42.805,6.029,13.3004,4.60014,2470.133,2021-1-23T15:02:56Z
2021-01-23T13:04:57Z,42.805,6.029,13.3015,4.60022,2470.147,2021-1-23T15:05:59Z
2021-01-23T13:08:00Z,42.805,6.029,13.3005,4.60033,2470.133,2021-1-23T15:09:02Z
2021-01-23T13:11:03Z,42.805,6.029,13.2997,4.60046,2470.147,2021-1-23T15:12:05Z
2021-01-23T13:14:06Z,42.805,6.029,13.3007,4.60019,2470.11,2021-1-23T15:15:08Z
2021-01-23T13:17:09Z,42.805,6.029,13.2991,4.59995,2470.124,2021-1-23T15:18:11Z
2021-01-23T13:20:13Z,42.805,6.029,13.3003,4.60009,2470.147,2021-1-23T15:21:15Z
2021-01-23T13:23:16Z,42.805,6.029,13.2994,4.60016,2470.11,2021-1-23T15:24:18Z
2021-01-23T13:26:19Z,42.805,6.029,13.3011,4.60012,2470.194,2021-1-23T15:27:21Z
2021-01-23T13:29:22Z,42.805,6.029,13.3009,4.60021,2470.156,2021-1-23T15:30:24Z
2021-01-23T13:32:25Z,42.805,6.029,13.3010,4.60002,2470.147,2021-1-23T15:33:27Z
2021-01-23T13:35:28Z,42.805,6.029,13.2993,4.59999,2470.171,2021-1-23T15:36:30Z
2021-01-23T13:38:31Z,42.805,6.029,13.3000,4.60003,2470.147,2021-1-23T15:39:33Z
2021-01-23T13:41:34Z,42.805,6.029,13.3003,4.60025,2470.171,2021-1-23T15:42:37Z
2021-01-23T13:44:38Z,42.805,6.029,13.3008,4.60005,2470.203,2021-1-23T15:45:40Z
2021-01-23T13:47:41Z,42.805,6.029,13.2990,4.60001,2470.147,2021-1-23T15:48:43Z
2021-01-23T13:50:44Z,42.805,6.029,13.2995,4.60007,2470.147,2021-1-23T15:51:46Z
2021-01-23T13:53:47Z,42.805,6.029,13.3015,4.60011,2470.133,2021-1-23T15:54:49Z
2021-01-23T13:56:50Z,42.805,6.029,13.3009,4.60007,2470.147,2021-1-23T15:57:52Z
2021-01-23T13:59:53Z,42.805,6.029,13.3006,4.60006,2470.147,2021-1-23T16:00:55Z
2021-01-23T14:02:56Z,42.805,6.029,13.3008,4.60025,2470.194,2021-1-23T16:03:58Z
2021-01-23T14:05:59Z,42.805,6.029,13.3000,4.60031,2470.194,2021-1-23T16:07:02Z
2021-01-23T14:09:03Z,42.805,6.029,13.3013,4.60024,2470.171,2021-1-23T16:10:05Z
2021-01-23T14:12:06Z,42.805,6.029,13.3010,4.60009,2470.147,2021-1-23T16:13:08Z
2021-01-23T14:15:09Z,42.805,6.029,13.3007,4.60013,2470.156,2021-1-23T16:16:11Z
2021-01-23T14:18:12Z,42.805,6.029,13.3009,4.60026,2470.11,2021-1-23T16:19:14Z
2021-01-23T14:21:15Z,42.805,6.029,13.2991,4.60013,2470.171,2021-1-23T16:22:17Z
2021-01-23T14:24:18Z,42.805,6.029,13.2991,4.59992,2470.194,2021-1-23T16:25:20Z
2021-01-23T14:27:21Z,42.805,6.029,13.2998,4.60009,2470.171,2021-1-23T16:28:23Z
2021-01-23T14:30:25Z,42.805,6.029,13.3009,4.60010,2470.156,2021-1-23T16:31:27Z
2021-01-23T14:33:28Z,42.805,6.029,13.3011,4.60013,2470.124,2021-1-23T16:34:30Z
2021-01-23T14:36:31Z,42.805,6.029,13.3011,4.60015,2470.147,2021-1-23T16:37:33Z
2021-01-23T14:39:34Z,42.805,6.029,13.3000,4.60003,2470.156,2021-1-23T16:40:36Z
2021-01-23T14:42:37Z,42.805,6.029,13.2991,4.59993,2470.147,2021-1-23T16:43:39Z
2021-01-23T14:45:40Z,42.805,6.029,13.2991,4.59998,2470.156,2021-1-23T16:46:42Z
2021-01-23T14:48:43Z,42.805,6.029,13.3010,4.60009,2470.194,2021-1-23T16:49:45Z
2021-01-23T14:51:46Z,42.805,6.029,13.3004,4.60008,2470.18,2021-1-23T16:52:48Z
2021-01-23T14:54:50Z,42.805,6.029,13.3004,4.60019,2470.156,2021-1-23T16:55:52Z
2021-01-23T14:57:53Z,42.805,6.029,13.3000,4.60011,2470.147,2021-1-23T16:58:55Z
2021-01-23T15:00:56Z,42.805,6.029,13.3013,4.60007,2470.133,2021-1-23T17:01:58Z
2021-01-23T15:03:59Z,42.805,6.029,13.3005,4.60037,2470.156,2021-1-23T17:05:01Z
2021-01-23T15:07:02Z,42.805,6.029,13.3003,4.60018,2470.133,2021-1-23T17:08:04Z
2021-01-23T15:10:05Z,42.805,6.029,13.2999,4.60014,2470.156,2021-1-23T17:11:07Z